Home   Weather   Midway   Past weeks

Flag for US Minor Outlying Islands Past Weather in Midway, US Minor Outlying Islands — Yesterday and Last 2 Weeks

Now
64 °F

Clear.


Feels Like: 64 °F
Forecast: 64 / 70 °F
Wind: 7 mph from Northeast

Location: Midway Island Naval Air Facility

Current Time: Apr 29, 2017 at 12:53:32 am

Latest Report: Apr 28, 2017 at 11:56 pm


Visibility: 10 mi

Pressure: 30.34 "Hg

Humidity: 70%

Dew Point: 54 °F

Location of MidwayLocation

Past Weather in Midway — Graph

°F

Midway Temperature Yesterday

Maximum temperature yesterday: 72 °F (at 11:56 am)
Minimum temperature yesterday: 62 °F (at 1:56 am)
Average temperature yesterday: 66 °F

High & Low Weather Summary for the Past Weeks

 TemperatureHumidityPressure
High78 °F (Apr 23, 1:56 pm)97% (Apr 24, 5:56 am)30.42 "Hg (Apr 24, 5:56 am)
Low58 °F (Apr 20, 4:56 am)47% (Apr 26, 2:56 pm)29.94 "Hg (Apr 25, 3:56 am)
Average69 °F73%30.17 "Hg
* Reported Apr 13 10:56 pm — Apr 28 10:56 pm, Midway, Weather by CustomWeather, © 2017

Note: Actual official high and low records may vary slightly from our data, if they occured in-between our weather recording intervals... More about our weather records

Advertising

Midway Weather History for the Previous 24 Hours

Scroll right to see more
 ConditionsComfort  
Time TempWeatherWind HumidityBarometerVisibility
10:56 pm
Fri, Apr 28
64 °FClear.8 mph68%30.34 "Hg10 mi
9:56 pm63 °FClear.7 mph70%30.34 "Hg10 mi
8:56 pm64 °FClear.7 mph68%30.34 "Hg10 mi
7:56 pm64 °FClear.8 mph65%30.32 "Hg10 mi
6:56 pm67 °FSunny.8 mph59%30.32 "Hg10 mi
5:56 pm69 °FScattered clouds.6 mph57%30.32 "Hg10 mi
4:56 pm69 °FSunny.7 mph55%30.32 "Hg10 mi
3:56 pm70 °FScattered clouds.9 mph55%30.32 "Hg10 mi
2:56 pm70 °FPartly sunny.8 mph55%30.33 "Hg10 mi
1:56 pm72 °FPassing clouds.10 mph52%30.34 "Hg10 mi
12:56 pm71 °FSunny.13 mph49%30.36 "Hg10 mi
11:56 am72 °FSunny.14 mph52%30.37 "Hg10 mi
10:56 am71 °FBroken clouds.13 mph55%30.38 "Hg10 mi
9:56 am70 °FPassing clouds.16 mph53%30.39 "Hg10 mi
8:56 am69 °FPassing clouds.16 mph55%30.38 "Hg10 mi
7:56 am67 °FPartly sunny.16 mph61%30.37 "Hg10 mi
6:56 am63 °FMild.12 mph70%30.37 "Hg10 mi
5:56 am62 °FPassing clouds.10 mph73%30.37 "Hg10 mi
4:56 am62 °FClear.10 mph67%30.37 "Hg10 mi
3:56 am62 °FClear.9 mph65%30.37 "Hg10 mi
2:56 am62 °FPassing clouds.10 mph65%30.38 "Hg10 mi
1:56 am62 °FClear.10 mph65%30.39 "Hg10 mi
12:56 am63 °FClear.12 mph60%30.40 "Hg10 mi
Weather by CustomWeather, © 2017

See weather overviewHow to use our weather pages